FW6725 Weather Reports


time (UTC)temp
C
wind
direction
speed
KPH
gust
KPH
rain 1hr
cm
rain 24hr
cm
rain mn
cm
humidity
%
barometer
mb
20260906191529 11 282 9.7 22.5 0.00 0.00 0.00 70 1012.5
20260906190528 11 279 11.3 24.1 0.00 0.00 0.00 69 1012.4
20260906185547 11 280 12.9 20.9 0.00 0.00 0.00 67 1012.3
20260906184525 11 276 11.3 19.3 0.00 0.00 0.00 66 1012.2
20260906183525 11 280 12.9 27.4 0.00 0.00 0.00 64 1012.0
20260906182524 11 278 11.3 20.9 0.00 0.00 0.00 63 1011.9
20260906181523 12 280 14.5 25.7 0.00 0.00 0.00 63 1011.8
20260906180522 12 278 12.9 25.7 0.00 0.00 0.00 62 1011.8
20260906175522 12 279 11.3 20.9 0.00 0.00 0.00 61 1011.6
20260906174521 12 273 12.9 24.1 0.00 0.00 0.00 60 1011.5
20260906173520 12 271 9.7 19.3 0.00 0.00 0.00 60 1011.4
20260906172519 12 275 11.3 24.1 0.00 0.00 0.00 60 1011.2
20260906171518 13 285 12.9 24.1 0.00 0.00 0.00 58 1011.1
20260906170537 13 292 12.9 24.1 0.00 0.00 0.00 57 1011.0
20260906165546 13 289 12.9 24.1 0.00 0.00 0.00 57 1010.9
20260906164545 13 290 12.9 24.1 0.00 0.00 0.00 55 1010.8
20260906163545 14 290 11.3 27.4 0.00 0.00 0.00 53 1010.8
20260906162543 14 303 11.3 22.5 0.00 0.00 0.00 49 1010.7
20260906161542 14 299 14.5 27.4 0.00 0.00 0.00 48 1010.6
20260906160540 14 289 12.9 27.4 0.00 0.00 0.00 50 1010.5
20260906155540 15 289 12.9 25.7 0.00 0.00 0.00 50 1010.4
20260906154539 15 293 9.7 24.1 0.00 0.00 0.00 49 1010.3
20260906153538 15 308 9.7 24.1 0.00 0.00 0.00 46 1010.2
20260906152538 15 308 11.3 22.5 0.00 0.00 0.00 44 1010.1
20260906151536 15 305 12.9 27.4 0.00 0.00 0.00 44 1010.0
20260906150535 15 307 11.3 22.5 0.00 0.00 0.00 43 1010.0
20260906145534 15 302 12.9 29.0 0.00 0.00 0.00 42 1009.9
20260906144553 15 305 14.5 30.6 0.00 0.00 0.00 40 1009.8
20260906143532 15 299 16.1 30.6 0.00 0.00 0.00 41 1009.7
20260906142531 15 296 14.5 30.6 0.00 0.00 0.00 39 1009.5
20260906141530 15 301 12.9 30.6 0.00 0.00 0.00 41 1009.5
20260906140529 15 294 16.1 29.0 0.00 0.00 0.00 40 1009.3
20260906135528 15 302 16.1 32.2 0.00 0.00 0.00 41 1009.3
20260906134527 15 289 16.1 33.8 0.00 0.00 0.00 39 1009.2
20260906133626 15 290 17.7 33.8 0.00 0.00 0.00 42 1009.1
20260906132605 15 308 16.1 32.2 0.00 0.00 0.00 44 1009.1
20260906131523 15 286 16.1 37.0 0.00 0.00 0.00 43 1009.0
20260906130522 15 287 16.1 37.0 0.00 0.00 0.00 44 1008.9
20260906125522 15 282 16.1 29.0 0.00 0.00 0.00 48 1008.9
20260906124520 15 281 17.7 29.0 0.00 0.00 0.00 47 1008.8
20260906123540 15 286 16.1 32.2 0.00 0.00 0.00 46 1008.7
20260906122519 15 285 16.1 32.2 0.00 0.00 0.00 48 1008.7
20260906121518 15 285 14.5 32.2 0.00 0.00 0.00 47 1008.6
20260906120517 15 293 11.3 29.0 0.00 0.00 0.00 49 1008.5
20260906115516 15 298 12.9 32.2 0.00 0.00 0.00 48 1008.4
20260906114545 14 293 14.5 32.2 0.00 0.00 0.00 49 1008.3
20260906113544 14 296 19.3 30.6 0.00 0.00 0.00 49 1008.2
20260906112543 14 286 16.1 33.8 0.00 0.00 0.00 50 1008.1
20260906111544 14 290 14.5 25.7 0.00 0.00 0.00 51 1008.0
20260906110543 14 290 16.1 29.0 0.00 0.00 0.00 50 1007.9
20260906105543 14 296 16.1 29.0 0.00 0.00 0.00 49 1007.7
20260906104541 13 295 14.5 27.4 0.00 0.00 0.00 50 1007.6
20260906103540 13 281 16.1 29.0 0.00 0.00 0.00 49 1007.5
20260906102538 13 283 16.1 29.0 0.00 0.00 0.00 51 1007.3
20260906101538 13 295 16.1 29.0 0.00 0.00 0.00 50 1007.2
20260906100537 13 307 16.1 29.0 0.00 0.00 0.00 51 1007.1
20260906095536 13 309 16.1 29.0 0.00 0.00 0.00 51 1006.9
20260906094556 13 302 12.9 29.0 0.00 0.00 0.00 50 1006.8
20260906093554 13 293 14.5 29.0 0.00 0.00 0.00 50 1006.7
20260906092533 13 304 14.5 29.0 0.00 0.00 0.00 52 1006.7
20260906091532 13 300 12.9 30.6 0.00 0.00 0.00 52 1006.7
20260906090531 13 295 12.9 29.0 0.00 0.00 0.00 54 1006.5
20260906085530 12 299 17.7 32.2 0.00 0.00 0.00 54 1006.4
20260906084529 12 295 14.5 32.2 0.00 0.00 0.00 56 1006.3
20260906083526 12 302 16.1 29.0 0.00 0.00 0.00 61 1006.3
20260906082525 12 304 12.9 30.6 0.00 0.00 0.00 62 1006.2
20260906081526 11 302 16.1 30.6 0.00 0.00 0.00 62 1006.2
20260906080545 12 312 11.3 22.5 0.00 0.00 0.00 66 1006.1
20260906075544 11 309 11.3 29.0 0.00 0.00 0.00 67 1006.1
20260906074603 11 300 12.9 27.4 0.00 0.00 0.00 70 1006.0
20260906073522 11 308 14.5 29.0 0.00 0.00 0.00 70 1005.9
20260906072520 11 298 14.5 27.4 0.00 0.00 0.00 72 1005.9
20260906071520 11 306 14.5 27.4 0.00 0.00 0.00 72 1005.8
20260906070518 11 304 12.9 27.4 0.00 0.00 0.00 72 1005.7
20260906065558 11 299 11.3 27.4 0.00 0.00 0.00 72 1005.7
20260906064517 11 301 9.7 20.9 0.00 0.00 0.00 74 1005.6
20260906063545 10 296 12.9 24.1 0.00 0.00 0.00 75 1005.5
20260906062546 10 304 11.3 22.5 0.00 0.00 0.00 75 1005.4
20260906061543 10 307 12.9 20.9 0.00 0.00 0.00 76 1005.3
20260906060544 10 309 11.3 22.5 0.00 0.00 0.00 76 1005.1
20260906055601 10 306 9.7 20.9 0.00 0.00 0.00 78 1005.1
20260906054541 10 312 11.3 22.5 0.00 0.00 0.00 78 1005.0
20260906053600 10 313 9.7 19.3 0.00 0.00 0.00 78 1004.8
20260906052539 10 312 9.7 17.7 0.00 0.00 0.00 79 1004.8
20260906051558 10 325 9.7 17.7 0.00 0.00 0.00 80 1004.6
20260906050539 9 335 9.7 19.3 0.00 0.00 0.00 81 1004.5
20260906045537 9 335 12.9 27.4 0.00 0.00 0.00 82 1004.5
20260906044536 9 330 12.9 25.7 0.00 0.00 0.00 83 1004.5
20260906043534 9 323 12.9 24.1 0.00 0.00 0.00 84 1004.4
20260906042533 9 322 12.9 29.0 0.00 0.00 0.00 85 1004.3
20260906041532 9 314 12.9 29.0 0.00 0.00 0.00 86 1004.1
20260906040531 8 316 11.3 24.1 0.00 0.00 0.00 88 1003.9
20260906035530 8 318 11.3 22.5 0.00 0.00 0.00 89 1003.8
20260906034529 8 318 9.7 20.9 0.00 0.00 0.00 91 1003.7
20260906033528 8 313 11.3 27.4 0.00 0.00 0.00 91 1003.5
20260906032527 8 311 9.7 24.1 0.00 0.00 0.00 92 1003.4
20260906031547 8 311 12.9 24.1 0.00 0.00 0.00 92 1003.4
20260906030545 8 308 11.3 22.5 0.00 0.00 0.00 93 1003.2
20260906025524 8 299 11.3 22.5 0.00 0.00 0.00 93 1003.1
20260906024523 8 302 9.7 22.5 0.00 0.00 0.00 93 1002.9
20260906023524 8 304 11.3 20.9 0.00 0.00 0.00 93 1002.8
20260906022522 8 307 9.7 19.3 0.00 0.00 0.00 93 1002.7
20260906021520 8 308 8.0 19.3 0.00 0.00 0.00 94 1002.7
20260906020520 8 309 9.7 19.3 0.00 0.00 0.00 93 1002.6
20260906015518 8 315 9.7 19.3 0.00 0.00 0.00 93 1002.4
20260906014518 8 317 8.0 19.3 0.00 0.00 0.00 93 1002.3
20260906013518 8 323 8.0 16.1 0.00 0.00 0.00 93 1002.2
20260906012537 8 323 8.0 16.1 0.00 0.00 0.00 93 1002.2
20260906011546 8 310 6.4 16.1 0.00 0.00 0.00 93 1002.1
20260906010545 8 322 8.0 17.7 0.00 0.00 0.00 93 1002.0
20260906005544 8 318 6.4 16.1 0.00 0.00 0.00 94 1001.9
20260906004543 8 318 8.0 17.7 0.00 0.00 0.00 93 1001.8
20260906003542 8 317 8.0 17.7 0.00 0.00 0.00 93 1001.7
20260906002541 8 313 8.0 16.1 0.00 0.00 0.00 93 1001.6
20260906001541 8 313 8.0 16.1 0.00 0.00 0.00 93 1001.5
20260906000539 9 313 8.0 14.5 0.00 0.00 0.00 93 1001.4
20260905235538 9 307 6.4 16.1 0.00 0.00 0.00 93 1001.2
20260905234538 9 311 8.0 16.1 0.00 0.00 0.00 93 1001.1
20260905233537 9 309 8.0 16.1 0.00 0.00 0.00 93 1001.1
20260905232535 9 310 8.0 14.5 0.00 0.00 0.00 92 1001.0
20260905231534 9 309 8.0 16.1 0.00 0.00 0.00 91 1000.9
20260905230533 10 314 8.0 19.3 0.00 0.00 0.00 90 1000.8
20260905225532 10 313 8.0 19.3 0.00 0.00 0.00 90 1000.7
20260905224532 10 310 6.4 16.1 0.00 0.00 0.00 90 1000.6
20260905223531 10 315 6.4 12.9 0.00 0.00 0.00 89 1000.6
20260905222529 10 321 8.0 17.7 0.00 0.00 0.00 89 1000.5
20260905221528 10 312 8.0 17.7 0.00 0.00 0.00 88 1000.4
20260905220527 10 323 8.0 14.5 0.00 0.00 0.00 88 1000.3
20260905215526 10 318 8.0 16.1 0.00 0.00 0.00 88 1000.3
20260905214525 10 319 8.0 17.7 0.00 0.00 0.00 88 1000.3
20260905213604 10 317 9.7 17.7 0.00 0.00 0.00 88 1000.2
20260905212523 10 324 6.4 14.5 0.00 0.00 0.00 89 1000.0
20260905211522 11 325 8.0 14.5 0.00 0.00 0.00 87 1000.0
20260905210521 11 325 8.0 16.1 0.00 0.00 0.00 86 999.9
20260905205520 11 324 8.0 16.1 0.00 0.00 0.00 85 999.8
20260905204539 11 320 6.4 16.1 0.00 0.00 0.00 85 999.6
20260905203518 11 315 6.4 14.5 0.00 0.00 0.00 85 999.5
20260905202517 11 316 8.0 17.7 0.00 0.00 0.00 85 999.5
20260905201516 11 315 8.0 17.7 0.00 0.00 0.00 84 999.4
20260905200545 11 320 8.0 14.5 0.00 0.00 0.00 85 999.2
20260905195605 11 319 8.0 16.1 0.00 0.00 0.00 85 999.2
20260905194544 12 326 6.4 16.1 0.00 0.00 0.00 85 999.1
20260905193543 12 317 8.0 16.1 0.00 0.00 0.00 84 999.0
20260905192602 12 322 8.0 16.1 0.00 0.00 0.00 83 999.0